星链-36906(STARLINK-36906)

导读

STARLINK-36906(NORAD编号68036)是美国SpaceX公司星链(Starlink)卫星互联网星座的一员,属于低轨通信卫星,旨在为全球提供高速低延迟互联网服务。作为星链大规模组网中的卫星,它运行在近地轨道,原本轨道高度约550公里,根据SpaceX在2026年的计划,包括它在内的4400颗星链卫星将降低轨道至480公里,这一调整能在卫星故障后加快其再入大气层销毁的速度,减少太空碎片与碰撞风险,应对近地轨道日益拥挤带来的安全挑战。

Basic Information
目录编号:
68036
目录名称:
STARLINK-36906
国际标识:
2026-040X
轨道中心:
EARTH
卫星名称:
星链-36906
卫星全名:
星链-36906(STARLINK-36906)
卫星状态:
在轨 (已飞行188 天)
发射日期:
2026-03-01 UTC
国别 :
美国 (US)
星等 :
--
Orbit Information
数据来源 国际轨道数据
星历时间: 2026-09-05T03:07:03+0800
18小时前
查看轨道信息
半长轴: 6843.68km
偏心率: 0.000155
轨道倾角: 97.285°
近地点辐角 71.243°
升交点赤经 195.390°
平近点角 288.898°
近地点: 464.482km
远地点: 466.604km
周期: 93.906分钟
每日圈数: 15.334453
Detailed Information
固有亮度:
5
最大亮度:
2.5
卫星平台:
Starlink V1.0
覆盖范围:
全球
运营商:
太空探索技术公司
运营商所在国:
美国
制造商(研发单位):
太空探索技术公司
制造商所在国:
美国
使用方式:
暂无
Satellite Introduction
Starlink 计划是 SpaceX 推出的全球卫星互联网项目,通过发射低轨道卫星,为全球尤其是偏远地区提供高速、低延迟的互联网服务。自 2019 年起,Starlink 已部署数千颗卫星,旨在缩小全球数字鸿沟,推动互联网普及。该项目还为军事、航空等行业提供通信支持,带来广泛经济效益。
2D Orbit Map
3D Orbit Map
Orbit Altitude Analysis Chart
Orbit Inclination Analysis Chart
Orbit Comprehensive Analysis Chart
View Comprehensive Chart
Conjunction Data List
Event ID Objects TCA Miss Dist (km) Collision Risk Probability Collision Risk Index (CRI) Action
CDM_260902-010704-835906-803621
2026-09-02T
01:07:41+0000
1.816 km
极远距离
2.750533E-6 低风险 0.44
CDM_260905-165605-230306-803621
2026-09-05T
16:56:33+0000
2.758 km
极远距离
1.487369E-6 低风险 0.38
CDM_260901-233304-835906-803621
2026-09-01T
23:33:41+0000
2.469 km
极远距离
1.365136E-6 低风险 0.38
CDM_260905-160504-607506-803622
2026-09-05T
16:05:07+0000
2.921 km
极远距离
1.355618E-6 低风险 0.38
CDM_260907-194204-739006-803621
2026-09-07T
19:42:18+0000
2.816 km
极远距离
1.282701E-6 低风险 0.37
CDM_260906-140304-836806-803621
2026-09-06T
14:03:14+0000
2.652 km
极远距离
1.005471E-6 低风险 0.35